cinex.com.ve alexa rank chart, cinex.com.ve alexa rank daily changes

cinex.com.ve alexa rank chart, cinex.com.ve alexa rank daily changes

cinex.com.ve
Actual rank:
47 295

RANK HISTORY

Date Rank Diff
2017/03/26 47 295 +53
2017/03/25 47 242 -650
2017/03/24 47 892 -391
2017/03/23 48 283 -432
2017/03/22 48 715 -375
2017/03/21 49 090 -854
2017/03/20 49 944 -757
2017/03/19 50 701 -18
2017/03/18 50 719 +149
2017/03/17 50 570 +264
2017/03/16 50 306 +707
2017/03/15 49 599 +407
2017/03/14 49 192 +788
2017/03/13 48 404 +49
2017/03/12 48 355 +743
2017/03/11 47 612 +19
2017/03/10 47 593 +720
2017/03/09 46 873 +598
2017/03/08 46 275 +46
2017/03/07 46 229 -679
2017/03/06 46 908 -749
2017/03/01 47 657 -1 200
2017/02/28 48 857 -2 331
2017/02/27 51 188 -1 406
2017/02/26 52 594 -889
2017/02/25 53 483 +329
2017/02/24 53 154 +381
2017/02/23 52 773 +974
2017/02/22 51 799 +543
2017/02/21 51 256 -199
2017/02/20 51 455 -1 192
2017/02/19 52 647 -1 206
2017/02/18 53 853 +317
2017/02/17 53 536 +1 153
2017/02/16 52 383 +250
2017/02/15 52 133 -436
2017/02/14 52 569 -1 495
2017/02/13 54 064 -746
2017/02/12 54 810 -840
2017/02/11 55 650 +698
2017/02/10 54 952 +1 303
2017/02/09 53 649 +1 175
2017/02/08 52 474 +456
2017/02/07 52 018 +98
2017/02/06 51 920 +529
2017/02/05 51 391 +730
2017/02/04 50 661 +3 056
2017/02/03 47 605 -180
2017/02/02 47 785 -297
2017/02/01 48 082 +254
2017/01/31 47 828 -31
2017/01/30 47 859 -423
2017/01/29 48 282 +318
2017/01/28 47 964 +2 220
2017/01/27 45 744 +621
2017/01/26 45 123 +116
2017/01/25 45 007

WIDGET FOR YOUR SITE

DOMAINS WITH THE NEAREST RANK

Domain Rank
5-ege.ru 47 290
theswiftcodes.com 47 291
mvdis.gov.tw 47 292
bfanetempresas.ao 47 293
shugiintv.go.jp 47 294
cinex.com.ve 47 295
moe-ren.net 47 296
wanted.de 47 297
stardewvalley.net 47 298
bytegate.ir 47 299
ssfcu.org 47 300

DOMAINS WITH THE NEAREST RANK BY TLD .com.ve

Domain Rank
movilnet.com.ve 38 476
farmatodo.com.ve 42 307
bancocaroni.com.ve 44 891
sofinet.com.ve 44 943
elmundo.com.ve 46 106
cinex.com.ve 47 295
tuinmueble.com.ve 48 242
hogaresdelapatria.com.ve 50 343
2001.com.ve 51 684
elsiglo.com.ve 52 362
inter.com.ve 55 209